Precipitable_Water
0.57 0.60 0.61 0.66 0.74 0.79 0.87 0.90 0.97 1.00 1.05 1.11 1.12 1.12 1.04 0.88 0.90 0.87 0.75 0.82 0.65 0.48 0.48 0.52 0.57 0.53 0.55 0.55 0.43 0.50 0.50 0.53 0.48 0.40 0.39 0.40 0.38 0.42 0.40 0.41 0.39 0.38 0.37 0.35 0.37 0.33 0.29 0.43 0.39 0.34 0.40 0.42 0.40 0.41
0.56 0.59 0.59 0.62 0.70 0.75 0.79 0.85 0.91 0.97 1.02 1.06 1.13 1.20 1.15 0.99 0.97 0.96 0.77 0.93 0.92 0.68 0.61 0.71 0.72 0.73 0.67 0.65 0.62 0.61 0.58 0.57 0.57 0.49 0.48 0.48 0.41 0.43 0.41 0.32 0.45 0.36 0.44 0.39 0.40 0.39 0.46 0.45 0.42 0.46 0.46 0.43 0.41 0.39
0.54 0.57 0.60 0.60 0.65 0.70 0.78 0.85 0.87 0.93 0.97 1.02 1.07 1.14 1.21 1.15 1.13 1.04 0.89 0.92 0.88 0.72 0.72 0.72 0.68 0.76 0.81 0.80 0.85 0.64 0.69 0.73 0.66 0.69 0.58 0.51 0.42 0.48 0.36 0.38 0.42 0.47 0.53 0.44 0.44 0.46 0.47 0.46 0.46 0.46 0.45 0.41 0.39 0.37
0.53 0.55 0.59 0.59 0.60 0.68 0.71 0.80 0.84 0.89 0.92 0.98 1.03 1.08 1.14 1.20 1.22 1.24 1.02 1.03 0.96 0.82 0.63 0.63 0.82 0.77 0.86 0.90 0.88 0.88 0.81 0.80 0.76 0.70 0.58 0.52 0.46 0.56 0.46 0.49 0.47 0.50 0.50 0.47 0.45 0.47 0.47 0.47 0.45 0.43 0.41 0.39 0.36 0.34
0.52 0.54 0.56 0.59 0.59 0.63 0.70 0.77 0.81 0.85 0.88 0.93 0.98 1.03 1.08 1.12 1.18 1.20 1.13 1.14 1.13 0.89 0.67 0.64 0.78 0.82 0.85 0.88 0.84 0.87 0.82 0.77 0.70 0.63 0.58 0.53 0.59 0.57 0.55 0.53 0.47 0.53 0.48 0.43 0.40 0.46 0.44 0.41 0.42 0.41 0.37 0.34 0.32 0.30
0.51 0.53 0.53 0.59 0.58 0.59 0.68 0.75 0.79 0.83 0.85 0.89 0.93 0.97 1.03 1.05 1.10 1.03 0.83 1.02 1.09 1.04 0.78 0.61 0.74 0.74 0.81 0.84 0.82 0.80 0.80 0.76 0.72 0.65 0.61 0.62 0.66 0.60 0.48 0.43 0.50 0.53 0.51 0.50 0.44 0.46 0.43 0.41 0.40 0.37 0.33 0.31 0.31 0.29
0.50 0.52 0.53 0.58 0.57 0.56 0.64 0.72 0.77 0.80 0.82 0.85 0.88 0.92 0.95 0.98 0.96 0.83 0.75 0.89 1.04 1.02 0.76 0.60 0.58 0.66 0.73 0.74 0.73 0.72 0.74 0.69 0.66 0.62 0.57 0.57 0.57 0.58 0.48 0.40 0.48 0.49 0.48 0.47 0.45 0.42 0.37 0.36 0.32 0.32 0.32 0.31 0.30 0.27
0.50 0.51 0.54 0.57 0.56 0.55 0.62 0.69 0.76 0.77 0.80 0.81 0.83 0.86 0.88 0.90 0.89 0.80 0.89 0.96 0.97 0.83 0.76 0.56 0.52 0.56 0.67 0.59 0.57 0.67 0.61 0.62 0.59 0.55 0.55 0.51 0.53 0.51 0.41 0.47 0.46 0.45 0.43 0.40 0.39 0.38 0.35 0.33 0.32 0.31 0.31 0.29 0.25 0.24
0.50 0.49 0.54 0.58 0.56 0.55 0.63 0.70 0.73 0.73 0.77 0.78 0.79 0.80 0.78 0.74 0.68 0.72 0.88 0.90 0.90 0.77 0.58 0.54 0.48 0.45 0.63 0.57 0.59 0.58 0.59 0.48 0.54 0.47 0.48 0.49 0.44 0.39 0.43 0.43 0.42 0.40 0.37 0.35 0.35 0.33 0.32 0.30 0.30 0.29 0.27 0.25 0.23 0.22
0.49 0.48 0.52 0.56 0.55 0.55 0.61 0.68 0.71 0.72 0.75 0.75 0.70 0.60 0.53 0.64 0.79 0.79 0.71 0.63 0.64 0.64 0.61 0.50 0.55 0.47 0.55 0.54 0.50 0.50 0.51 0.44 0.39 0.42 0.46 0.40 0.37 0.43 0.43 0.42 0.40 0.39 0.36 0.34 0.30 0.29 0.30 0.29 0.28 0.26 0.25 0.24 0.23 0.18
0.47 0.46 0.51 0.54 0.55 0.55 0.63 0.66 0.68 0.71 0.70 0.62 0.53 0.50 0.62 0.73 0.65 0.58 0.49 0.48 0.50 0.46 0.51 0.50 0.51 0.47 0.55 0.45 0.44 0.48 0.42 0.41 0.33 0.35 0.34 0.32 0.30 0.34 0.37 0.37 0.37 0.36 0.34 0.33 0.33 0.32 0.32 0.30 0.26 0.24 0.23 0.22 0.18 0.17
0.44 0.45 0.51 0.54 0.56 0.58 0.64 0.65 0.68 0.63 0.60 0.60 0.58 0.62 0.61 0.54 0.48 0.42 0.39 0.43 0.42 0.39 0.46 0.45 0.47 0.49 0.49 0.53 0.43 0.42 0.36 0.37 0.29 0.36 0.31 0.26 0.31 0.33 0.33 0.32 0.32 0.32 0.32 0.32 0.32 0.30 0.28 0.26 0.25 0.24 0.20 0.18 0.18 0.17
0.43 0.44 0.49 0.54 0.57 0.61 0.62 0.65 0.65 0.64 0.64 0.60 0.51 0.45 0.42 0.41 0.34 0.32 0.29 0.33 0.35 0.42 0.44 0.45 0.42 0.46 0.46 0.46 0.40 0.37 0.31 0.29 0.35 0.29 0.26 0.28 0.31 0.31 0.31 0.31 0.30 0.31 0.32 0.31 0.29 0.28 0.27 0.25 0.24 0.20 0.18 0.18 0.18 0.17
0.41 0.43 0.49 0.54 0.57 0.61 0.62 0.64 0.63 0.61 0.55 0.43 0.38 0.30 0.32 0.29 0.32 0.34 0.35 0.37 0.42 0.43 0.43 0.43 0.41 0.40 0.41 0.37 0.36 0.30 0.31 0.32 0.25 0.22 0.23 0.28 0.29 0.29 0.30 0.31 0.30 0.30 0.29 0.28 0.27 0.27 0.25 0.23 0.19 0.19 0.19 0.18 0.17 0.16
0.40 0.43 0.50 0.53 0.57 0.62 0.63 0.63 0.62 0.59 0.48 0.37 0.37 0.28 0.29 0.34 0.37 0.37 0.39 0.40 0.42 0.43 0.40 0.38 0.38 0.38 0.35 0.32 0.32 0.30 0.26 0.23 0.23 0.22 0.25 0.26 0.29 0.30 0.30 0.30 0.29 0.28 0.28 0.28 0.27 0.26 0.22 0.20 0.19 0.18 0.18 0.18 0.17 0.17
0.41 0.45 0.47 0.51 0.57 0.62 0.61 0.59 0.56 0.52 0.44 0.38 0.35 0.30 0.33 0.32 0.32 0.33 0.34 0.34 0.39 0.39 0.40 0.39 0.33 0.30 0.28 0.29 0.25 0.25 0.23 0.21 0.23 0.26 0.26 0.28 0.28 0.29 0.30 0.30 0.29 0.29 0.28 0.27 0.25 0.22 0.20 0.20 0.19 0.18 0.18 0.17 0.17 0.17
0.46 0.41 0.47 0.52 0.59 0.61 0.59 0.52 0.48 0.39 0.36 0.33 0.31 0.35 0.34 0.33 0.32 0.32 0.33 0.34 0.39 0.35 0.29 0.30 0.25 0.25 0.29 0.24 0.23 0.26 0.23 0.26 0.27 0.28 0.29 0.29 0.30 0.31 0.32 0.31 0.30 0.28 0.27 0.24 0.22 0.21 0.20 0.20 0.19 0.18 0.16 0.17 0.17 0.17
0.44 0.47 0.52 0.57 0.57 0.54 0.49 0.47 0.40 0.35 0.29 0.31 0.30 0.31 0.33 0.33 0.31 0.31 0.32 0.33 0.31 0.29 0.28 0.24 0.26 0.22 0.20 0.19 0.20 0.24 0.24 0.25 0.26 0.27 0.31 0.32 0.32 0.32 0.31 0.29 0.28 0.26 0.23 0.21 0.20 0.20 0.20 0.19 0.18 0.17 0.16 0.17 0.17 0.17
0.50 0.53 0.56 0.57 0.55 0.47 0.39 0.38 0.38 0.28 0.29 0.31 0.33 0.34 0.34 0.32 0.32 0.32 0.32 0.31 0.30 0.30 0.26 0.23 0.20 0.18 0.20 0.24 0.23 0.23 0.24 0.27 0.28 0.29 0.29 0.30 0.31 0.30 0.29 0.28 0.25 0.23 0.20 0.20 0.20 0.19 0.19 0.18 0.17 0.17 0.17 0.17 0.17 0.17
0.55 0.53 0.54 0.55 0.55 0.41 0.34 0.32 0.38 0.31 0.27 0.30 0.32 0.31 0.31 0.30 0.30 0.30 0.30 0.30 0.29 0.27 0.23 0.21 0.21 0.23 0.23 0.24 0.26 0.27 0.28 0.29 0.27 0.26 0.26 0.28 0.28 0.27 0.26 0.24 0.21 0.21 0.20 0.20 0.20 0.19 0.18 0.18 0.18 0.18 0.17 0.17 0.17 0.16
0.51 0.51 0.53 0.52 0.44 0.40 0.33 0.31 0.29 0.30 0.30 0.28 0.30 0.30 0.29 0.29 0.27 0.27 0.27 0.30 0.26 0.23 0.21 0.23 0.23 0.25 0.27 0.28 0.28 0.28 0.28 0.28 0.26 0.25 0.24 0.24 0.25 0.25 0.22 0.21 0.21 0.21 0.19 0.19 0.18 0.18 0.18 0.17 0.17 0.18 0.17 0.17 0.16 0.17
0.47 0.51 0.46 0.46 0.37 0.33 0.30 0.31 0.29 0.28 0.26 0.25 0.26 0.26 0.24 0.24 0.24 0.24 0.26 0.23 0.21 0.22 0.23 0.23 0.24 0.25 0.25 0.25 0.26 0.27 0.27 0.27 0.26 0.25 0.25 0.24 0.20 0.20 0.19 0.20 0.20 0.19 0.19 0.19 0.18 0.18 0.17 0.18 0.18 0.18 0.17 0.16 0.15 0.15
0.50 0.47 0.40 0.36 0.31 0.27 0.26 0.30 0.24 0.24 0.21 0.21 0.23 0.21 0.21 0.21 0.22 0.25 0.20 0.20 0.21 0.23 0.23 0.23 0.23 0.24 0.23 0.24 0.25 0.25 0.26 0.25 0.24 0.24 0.23 0.22 0.22 0.22 0.21 0.20 0.20 0.19 0.18 0.19 0.19 0.18 0.18 0.18 0.18 0.17 0.16 0.15 0.14 0.13
0.42 0.34 0.29 0.26 0.24 0.21 0.24 0.22 0.24 0.23 0.22 0.20 0.20 0.18 0.19 0.20 0.22 0.20 0.18 0.20 0.22 0.23 0.23 0.23 0.23 0.22 0.23 0.24 0.23 0.23 0.24 0.25 0.23 0.23 0.22 0.21 0.20 0.20 0.20 0.20 0.20 0.20 0.19 0.19 0.19 0.18 0.18 0.17 0.17 0.16 0.15 0.14 0.14 0.14
0.26 0.23 0.23 0.20 0.22 0.20 0.19 0.19 0.19 0.19 0.18 0.19 0.18 0.18 0.19 0.21 0.18 0.18 0.17 0.19 0.20 0.21 0.22 0.23 0.23 0.23 0.22 0.22 0.23 0.23 0.24 0.23 0.21 0.20 0.20 0.20 0.19 0.19 0.19 0.19 0.19 0.20 0.20 0.19 0.18 0.17 0.17 0.16 0.16 0.15 0.14 0.14 0.15 0.15
0.20 0.22 0.20 0.19 0.19 0.18 0.18 0.16 0.17 0.17 0.18 0.18 0.18 0.20 0.21 0.19 0.17 0.16 0.17 0.18 0.19 0.20 0.21 0.21 0.21 0.21 0.21 0.22 0.21 0.21 0.21 0.21 0.20 0.18 0.19 0.19 0.18 0.17 0.17 0.16 0.16 0.17 0.19 0.19 0.18 0.17 0.17 0.16 0.15 0.14 0.14 0.14 0.16 0.16
0.16 0.17 0.20 0.22 0.21 0.21 0.19 0.20 0.21 0.19 0.18 0.17 0.18 0.18 0.18 0.15 0.15 0.17 0.18 0.17 0.18 0.20 0.21 0.21 0.21 0.21 0.20 0.19 0.19 0.19 0.19 0.18 0.17 0.17 0.18 0.18 0.18 0.18 0.17 0.16 0.15 0.17 0.18 0.18 0.18 0.17 0.16 0.16 0.15 0.14 0.14 0.14 0.15 0.15
0.17 0.18 0.18 0.20 0.20 0.21 0.19 0.19 0.18 0.17 0.17 0.19 0.19 0.16 0.16 0.14 0.12 0.13 0.14 0.15 0.17 0.18 0.19 0.19 0.18 0.18 0.17 0.17 0.17 0.17 0.17 0.17 0.17 0.17 0.17 0.17 0.17 0.17 0.17 0.17 0.17 0.18 0.18 0.18 0.17 0.17 0.17 0.17 0.17 0.16 0.14 0.14 0.15 0.16
0.17 0.19 0.19 0.18 0.18 0.18 0.17 0.16 0.16 0.18 0.19 0.18 0.15 0.12 0.11 0.12 0.13 0.14 0.14 0.15 0.16 0.16 0.15 0.15 0.16 0.16 0.16 0.16 0.16 0.16 0.15 0.15 0.14 0.13 0.13 0.13 0.14 0.15 0.17 0.17 0.17 0.17 0.17 0.17 0.17 0.18 0.18 0.18 0.17 0.17 0.16 0.16 0.16 0.17
0.10 0.11 0.09 0.10 0.10 0.10 0.12 0.14 0.15 0.15 0.13 0.12 0.12 0.12 0.12 0.12 0.13 0.15 0.15 0.14 0.14 0.14 0.14 0.14 0.14 0.14 0.13 0.13 0.13 0.14 0.15 0.15 0.15 0.14 0.13 0.13 0.13 0.16 0.16 0.16 0.16 0.17 0.17 0.17 0.16 0.17 0.18 0.18 0.18 0.17 0.16 0.16 0.16 0.15
0.10 0.09 0.08 0.08 0.08 0.09 0.10 0.10 0.11 0.11 0.11 0.11 0.11 0.10 0.11 0.12 0.14 0.14 0.14 0.13 0.13 0.13 0.13 0.12 0.13 0.13 0.13 0.13 0.13 0.13 0.12 0.14 0.15 0.15 0.15 0.15 0.16 0.16 0.17 0.17 0.18 0.18 0.17 0.17 0.16 0.16 0.16 0.16 0.16 0.15 0.15 0.15 0.15 0.15
0.09 0.09 0.08 0.07 0.08 0.10 0.11 0.10 0.10 0.10 0.10 0.10 0.10 0.11 0.12 0.12 0.11 0.12 0.13 0.13 0.12 0.12 0.12 0.12 0.12 0.12 0.13 0.14 0.14 0.14 0.15 0.15 0.15 0.15 0.16 0.16 0.16 0.17 0.18 0.17 0.17 0.17 0.17 0.16 0.16 0.16 0.16 0.15 0.15 0.15 0.14 0.14 0.14 0.14
0.11 0.11 0.10 0.09 0.09 0.09 0.09 0.09 0.09 0.09 0.10 0.10 0.11 0.11 0.11 0.10 0.09 0.11 0.13 0.13 0.12 0.12 0.12 0.13 0.13 0.14 0.14 0.14 0.14 0.15 0.15 0.15 0.15 0.16 0.16 0.17 0.17 0.18 0.17 0.17 0.17 0.16 0.16 0.16 0.15 0.15 0.15 0.15 0.14 0.14 0.14 0.14 0.14 0.14
Wind_Speed
45 47 49 49 49 48 47 44 43 43 44 43 45 50 48 46 44 40 36 36 33 30 28 29 28 26 26 27 25 23 22 25 24 25 25 25 26 25 25 25 23 23 22 23 23 25 30 22 24 29 31 34 34 36
43 45 47 48 48 48 48 46 43 42 43 43 43 45 51 48 46 43 38 37 37 32 29 30 31 30 29 28 28 27 26 24 24 23 25 24 25 26 26 26 25 26 26 25 25 27 27 27 31 33 35 35 36 37
41 42 45 46 47 47 45 44 42 42 41 43 43 43 47 52 50 48 41 37 36 35 34 34 33 32 31 30 30 29 30 28 29 28 28 28 28 26 26 28 28 29 28 28 29 30 32 33 33 35 35 35 35 35
40 40 42 44 45 47 45 44 41 41 40 40 41 43 43 47 52 51 44 41 40 35 35 34 33 33 34 33 32 31 31 29 28 28 28 28 28 28 28 29 29 28 25 30 34 34 33 33 34 33 33 33 34 35
39 39 40 41 43 44 44 43 42 41 39 39 37 39 42 43 46 51 46 45 44 39 30 32 33 34 33 32 31 31 30 29 30 29 29 30 30 28 30 31 31 28 29 29 31 30 31 32 32 32 32 33 33 35
37 37 37 39 40 42 42 40 39 40 37 37 38 35 37 39 41 40 39 43 42 40 35 33 32 30 31 30 29 29 30 30 29 28 29 29 29 28 27 29 29 27 28 30 31 30 30 30 31 31 31 32 33 34
34 34 35 37 37 38 40 38 38 38 37 35 35 37 34 36 37 38 36 37 41 41 36 32 32 33 32 31 30 30 29 28 28 28 28 27 26 27 28 28 26 27 29 28 28 28 29 30 31 30 31 31 32 33
32 31 31 34 34 35 37 36 35 36 37 36 34 34 35 33 35 35 35 35 36 37 36 32 30 31 32 30 29 29 28 27 26 26 25 26 25 27 29 28 27 28 27 27 28 29 29 28 28 29 30 31 31 32
30 29 28 30 32 32 33 33 32 32 35 33 33 31 34 35 34 34 33 33 33 33 31 31 31 30 31 30 28 28 27 26 25 26 26 26 27 29 28 27 27 27 27 27 27 27 27 27 27 28 29 30 31 31
29 28 27 27 28 29 30 30 31 30 33 31 30 28 28 31 32 31 31 31 30 31 30 29 28 28 29 28 26 25 25 24 24 25 26 28 30 28 27 27 28 27 27 26 26 27 26 27 27 27 28 29 29 30
26 26 25 25 26 27 27 26 28 31 30 28 27 27 27 27 27 27 26 27 27 27 28 28 26 25 25 25 24 24 23 23 25 25 26 27 28 25 25 26 26 26 26 26 25 25 25 25 26 26 27 27 27 27
24 24 24 23 24 26 26 23 24 25 25 25 23 23 24 24 23 23 24 24 24 25 25 25 25 24 24 24 23 24 24 24 24 24 25 27 25 23 24 24 23 23 23 23 23 23 23 24 24 25 25 25 25 25
23 23 22 22 22 25 25 23 22 23 23 22 21 21 21 21 22 22 22 22 24 23 22 23 22 22 22 22 22 22 22 23 23 25 26 26 23 23 23 23 22 22 21 21 22 22 23 23 23 24 24 23 23 24
22 22 22 21 21 23 24 23 21 21 19 19 18 20 20 19 20 20 20 20 19 19 18 18 19 20 20 20 21 21 21 22 23 25 25 23 22 22 22 22 21 21 21 21 21 22 22 22 22 22 22 22 23 24
21 21 22 21 20 22 24 22 21 20 16 16 16 17 17 17 16 15 16 16 17 16 16 16 17 19 18 19 20 20 20 22 23 22 20 21 20 20 20 21 21 21 21 21 21 21 21 21 20 20 21 22 23 24
20 20 21 21 21 23 26 21 16 17 17 14 14 13 15 15 15 15 15 15 16 16 15 16 16 16 17 18 19 21 20 22 21 21 22 21 21 21 21 21 21 21 21 20 20 20 20 19 20 20 21 22 23 23
19 19 21 22 21 25 25 18 15 14 14 14 13 12 12 12 12 12 13 13 14 14 15 16 16 17 18 19 20 21 23 23 23 23 23 22 22 22 21 21 20 19 18 18 19 19 19 19 20 20 21 22 22 22
17 19 21 23 22 22 20 16 13 12 13 13 13 12 11 12 12 11 11 12 13 13 14 14 15 17 18 19 20 21 22 22 22 22 22 22 20 20 19 19 18 18 18 18 18 18 19 19 20 20 21 21 21 20
17 20 23 21 20 18 17 14 13 12 11 12 12 11 10 11 10 11 12 12 12 13 13 14 15 16 17 19 20 20 21 22 22 20 20 19 19 18 18 18 18 18 18 18 18 19 20 21 20 20 20 20 20 20
20 20 20 19 16 16 13 11 12 12 12 11 12 12 12 12 12 12 13 14 15 16 17 17 18 19 20 20 20 21 20 19 19 19 19 18 18 18 18 19 19 19 19 19 20 21 21 20 19 19 19 20 19 19
18 17 16 15 13 11 10 12 10 11 12 12 11 11 12 13 13 14 15 17 18 19 19 20 20 20 20 20 19 18 17 17 17 18 18 18 18 19 19 20 20 20 20 21 21 21 19 19 19 19 19 19 18 18
14 15 16 11 10 8 8 8 10 9 9 10 12 12 12 13 14 15 17 17 19 20 20 20 19 18 17 16 16 16 15 15 15 15 15 16 18 19 19 19 19 19 20 20 19 19 19 20 20 19 19 18 18 17
13 11 10 9 8 7 8 8 8 8 8 10 11 11 11 13 14 15 14 14 15 15 15 15 15 14 14 14 13 13 13 13 14 14 15 15 15 16 16 16 17 18 18 19 19 20 20 20 20 19 18 18 18 17
8 7 5 6 6 6 7 8 9 9 9 10 11 12 12 12 12 12 12 12 12 13 12 12 12 11 11 11 11 12 12 13 13 14 15 15 16 16 17 17 18 19 19 20 20 20 20 20 19 19 19 18 18 17
4 1 2 3 5 6 7 8 9 10 10 11 11 10 10 11 11 11 11 11 11 10 10 10 10 11 11 11 11 12 13 14 14 15 16 16 17 17 18 19 19 20 20 20 20 20 20 20 20 20 20 19 19 18
2 4 4 5 5 6 7 8 9 9 9 9 9 10 10 10 10 10 10 10 11 10 10 10 11 11 11 12 13 14 15 15 16 16 16 17 18 19 19 20 20 20 21 22 22 22 22 21 21 21 21 21 20 19
4 4 4 5 6 6 6 6 7 8 8 8 8 9 10 10 10 11 11 11 11 11 11 11 11 12 13 13 14 14 15 16 16 17 17 18 19 20 20 21 21 22 22 22 22 23 23 23 23 22 22 21 21 20
4 5 5 6 6 7 7 7 7 7 8 9 10 10 10 10 10 10 10 10 10 10 10 11 11 12 12 13 14 15 16 17 18 19 20 20 21 21 22 23 23 24 24 24 24 24 24 23 23 22 21 21 20 20
2 3 4 3 4 5 5 6 6 6 6 6 6 6 6 6 7 7 8 8 9 10 11 11 12 13 14 15 16 17 18 19 20 21 21 21 22 22 23 24 24 24 23 23 22 22 21 21 20 20 19 19 19 19
2 3 2 2 2 3 3 2 1 2 2 2 3 3 4 6 7 8 9 10 11 11 12 13 14 15 16 17 18 18 19 19 19 20 20 19 19 20 20 20 19 18 18 18 18 18 18 18 18 18 18 18 19 19
3 3 3 2 1 1 1 1 2 2 3 4 5 6 7 8 9 10 11 11 12 13 14 15 16 16 16 17 17 17 17 17 17 17 16 16 16 17 17 16 16 15 15 15 15 15 16 16 16 17 18 19 19 19
5 4 3 3 3 3 4 4 5 6 7 8 8 9 10 11 11 12 13 13 14 15 15 15 15 15 15 15 15 16 17 17 17 16 17 17 17 18 17 16 16 16 16 16 16 16 16 17 17 18 18 19 19 20
5 5 5 5 5 6 7 8 8 9 9 10 11 12 12 12 13 14 14 13 13 13 12 13 13 14 15 15 15 16 16 16 17 17 17 17 17 17 17 17 18 19 19 20 20 20 20 21 21 22 22 22 22 22
Wind_Direction
239 237 235 234 233 233 234 237 236 237 236 235 234 229 229 228 228 231 235 234 236 242 243 242 243 246 246 248 254 257 262 265 267 267 271 274 276 275 282 282 281 281 282 287 287 292 296 299 304 303 310 310 310 312
239 237 235 234 232 232 235 236 237 236 235 234 234 233 227 227 227 228 235 233 235 241 246 246 247 248 251 254 255 255 265 264 265 271 271 274 276 278 281 282 280 283 281 287 281 291 297 290 304 305 307 308 309 310
239 238 235 233 232 231 231 234 236 234 235 233 233 232 229 227 227 228 232 232 234 241 248 248 248 249 251 252 256 259 262 266 267 273 271 274 274 276 277 279 281 283 281 285 291 292 289 295 300 303 306 307 309 311
238 238 235 233 232 230 231 232 234 233 234 233 232 231 229 229 227 226 232 233 233 243 248 251 249 249 251 253 256 259 264 265 269 269 270 270 274 273 278 283 278 285 284 285 286 291 293 297 299 302 305 307 309 311
237 237 235 233 231 230 229 232 234 232 233 232 231 229 230 228 227 227 233 233 233 237 248 251 250 251 251 254 254 255 258 263 267 267 268 269 273 274 278 281 280 280 283 284 292 298 297 301 302 303 304 306 309 311
236 236 234 233 231 229 227 229 231 228 232 229 228 229 226 225 224 225 229 232 231 234 242 248 252 252 251 253 254 256 260 264 266 267 268 270 272 271 275 279 285 282 287 290 290 296 299 300 302 304 305 307 310 312
232 234 232 231 230 228 226 229 229 227 228 228 228 226 225 223 222 225 229 233 230 233 239 245 247 249 251 255 259 259 260 264 266 266 267 269 271 270 275 278 285 287 288 290 290 293 298 298 301 303 305 308 310 312
229 230 230 228 228 227 224 226 227 227 226 226 226 225 224 223 223 229 233 234 234 233 238 241 245 247 248 254 255 259 260 262 265 265 269 270 272 273 278 282 284 285 287 289 292 297 299 299 301 304 306 308 310 313
225 225 227 226 224 224 220 222 223 226 220 224 222 227 227 229 230 232 232 232 233 233 236 240 241 246 245 251 254 257 258 262 265 265 268 271 274 275 282 280 281 283 287 289 293 296 297 299 301 304 306 308 311 312
220 221 223 223 221 220 218 220 221 221 217 219 224 228 229 228 228 231 233 233 235 236 239 243 244 246 247 248 252 253 255 257 262 268 272 273 278 279 280 283 282 282 287 288 292 294 295 297 300 303 306 309 310 312
216 218 219 219 218 216 215 217 221 212 213 219 225 228 227 223 226 229 232 233 234 236 240 240 242 243 245 246 248 253 255 261 265 270 270 277 281 281 280 281 282 283 285 290 293 296 297 297 300 303 306 308 311 313
212 213 214 215 213 208 207 209 202 206 213 217 220 219 220 224 227 229 231 233 237 237 238 239 240 243 246 248 250 254 258 262 267 269 274 278 282 278 279 281 282 283 285 289 292 295 297 299 302 304 306 308 310 312
209 209 209 209 208 204 204 203 205 206 207 212 215 216 222 226 227 230 229 235 237 237 237 238 241 245 246 250 253 255 259 263 267 271 275 280 280 277 278 280 281 282 284 288 291 293 296 299 302 304 305 307 310 312
205 205 204 204 203 200 200 197 199 198 203 211 216 218 226 227 231 235 235 234 236 234 233 237 242 246 248 250 254 258 263 264 268 273 276 279 275 276 277 278 277 279 283 286 289 292 296 299 301 303 305 307 310 312
200 200 199 199 197 193 189 190 192 198 204 208 214 219 223 223 223 224 226 229 232 232 237 243 248 249 251 254 260 259 263 266 270 275 277 279 276 276 275 275 276 279 283 285 289 291 294 297 299 302 305 308 309 312
195 195 195 193 192 189 184 185 192 199 204 206 210 213 214 220 225 229 232 234 235 234 241 249 251 253 255 258 259 259 264 266 273 275 277 276 275 276 276 275 277 280 282 286 288 290 292 294 297 301 304 306 309 311
188 189 188 187 186 180 183 189 194 199 203 207 209 209 211 215 219 225 233 235 234 241 250 253 254 258 260 263 264 263 267 272 272 273 273 273 272 274 273 273 275 277 279 284 287 290 292 294 297 300 302 305 308 310
182 182 179 174 176 179 188 194 197 199 198 202 204 208 213 215 215 221 228 229 243 251 256 263 261 263 265 269 270 270 270 272 274 273 274 274 272 271 270 270 269 273 279 283 287 290 292 294 297 299 301 304 307 310
171 171 172 175 178 181 188 196 201 196 199 202 200 202 207 213 224 231 234 241 253 258 264 271 273 273 274 274 274 274 273 273 274 274 273 272 270 268 268 268 270 273 277 280 284 290 293 295 297 297 300 303 306 309
153 157 163 168 176 184 188 198 203 203 204 207 210 218 225 229 235 242 247 255 261 268 273 276 278 279 279 278 278 278 277 273 271 270 270 267 267 267 267 269 272 273 276 280 285 289 291 292 294 295 297 300 303 305
152 159 161 169 172 181 194 199 205 209 207 212 213 221 231 239 246 255 261 266 269 275 276 279 280 279 279 277 276 277 274 271 270 272 270 268 265 268 270 272 273 273 277 281 285 287 287 290 292 294 296 298 299 301
154 158 164 164 177 184 183 196 195 199 210 219 225 234 241 249 257 263 269 271 275 278 277 278 277 275 273 274 274 275 273 272 274 274 274 270 270 272 273 272 273 276 279 282 283 285 287 289 291 291 293 294 295 297
147 155 166 179 188 199 201 204 207 220 228 232 237 244 256 264 269 271 273 277 278 279 278 277 274 272 270 271 270 272 275 276 276 277 277 277 276 276 275 275 277 279 280 282 283 285 287 288 288 288 289 290 292 293
148 160 173 193 204 210 217 226 229 236 242 250 254 258 265 269 267 270 272 280 284 284 279 274 270 268 267 268 272 275 278 279 278 279 281 280 280 280 280 280 280 282 283 284 285 285 286 286 285 286 286 287 287 289
150 177 221 222 224 227 237 240 245 248 253 260 260 258 258 262 267 271 274 276 282 285 283 276 272 271 268 269 271 277 282 284 285 285 285 285 284 283 283 283 283 283 283 283 283 284 284 285 284 284 283 282 283 285
235 274 250 248 249 246 246 247 251 249 252 255 257 259 262 262 267 271 277 281 283 283 281 280 278 274 274 277 278 281 285 287 288 287 287 287 287 287 286 286 285 284 283 282 283 283 284 284 284 282 281 280 280 280
246 261 262 263 259 255 253 258 260 260 261 261 258 258 262 266 272 276 278 282 280 280 280 280 279 279 279 280 282 285 287 289 289 289 289 289 289 289 288 288 288 287 286 284 283 283 284 284 283 282 280 279 278 276
261 270 263 270 268 274 265 268 272 270 264 266 262 265 270 274 274 276 279 279 278 279 279 281 282 283 284 284 286 288 289 291 291 291 290 291 291 291 290 290 288 288 286 285 284 283 282 281 282 281 279 277 276 274
296 282 275 283 277 280 278 274 268 266 266 256 263 262 266 271 274 277 279 282 283 282 283 284 286 287 287 288 290 292 293 294 294 294 293 293 293 293 294 293 291 289 287 285 284 283 281 280 279 279 278 277 277 276
357 333 321 314 314 312 299 284 241 249 261 263 265 263 274 281 287 290 290 290 289 288 289 289 290 291 291 293 294 295 297 298 298 297 296 296 296 298 300 300 298 294 290 288 288 287 285 285 276 277 278 279 280 278
318 317 326 324 298 277 257 269 268 271 280 285 290 289 291 293 294 296 296 295 295 294 293 294 294 295 295 296 297 297 297 300 303 302 300 300 301 303 306 304 302 299 297 295 294 293 291 287 283 281 281 282 281 280
310 310 292 279 267 261 277 282 286 285 290 290 294 294 295 296 297 297 298 299 298 298 298 297 296 297 298 299 299 299 299 300 301 301 301 300 301 303 302 303 303 300 298 296 295 293 292 290 288 286 285 284 283 282
292 295 292 281 275 276 280 285 290 289 290 292 295 296 297 297 298 301 301 301 302 303 303 303 303 303 303 303 303 303 303 303 303 303 302 301 301 304 302 301 299 298 296 294 292 291 290 288 287 286 285 285 284 284